HTV-6 (KOUNOTORI 6)

Last updated on Sun Feb 05 2017 00:15:06 GMT+0000 (Coordinated Universal Time)

1 41881U 16076A 17035.97165666 .00002588 00000-0 28168-4 0 9996 2 41881 51.6445 336.6311 0008555 304.1569 143.7215 15.67859124 8956
UTC large
Height (km)
Speed (km/s)
/
Latitude / Longitude
Inclination (degrees)
Orbital Period (minutes)
Azimuth
Elevation
Range (km)
Doppler Factor

Next 0 passes for location: London (51.5072 / 0.1276)

Sorry there are no passes over London.